Flag for USA

Past Weather in Paterson, New Jersey, USA — Yesterday and Last 2 Weeks

Now
69 °F

More clouds than sun.


Feels Like: 69 °F
Forecast: 71 / 57 °F
Wind: 3 mph from North

Location: Essex County Airport
Current Time: Oct 20, 2020 at 1:44:33 pm
Latest Report: Oct 20, 2020 at 1:14 pm
Visibility: 10 mi
Pressure30.24 "Hg
Humidity: 76%
Dew Point: 61 °F
Location of PatersonLocation

Past Weather in Paterson — Graph

°F

Paterson Temperature Yesterday

Maximum temperature yesterday: 66 °F (at 1:15 pm)
Minimum temperature yesterday: 46 °F (at 6:53 am)
Average temperature yesterday: 57 °F

High & Low Weather Summary for the Past Weeks

 TemperatureHumidityPressure
High77 °F (Oct 15, 2:53 pm)93% (Oct 6, 6:34 am)30.52 "Hg (Oct 6, 6:34 am)
Low36 °F (Oct 18, 6:53 am)26% (Oct 17, 3:53 pm)29.61 "Hg (Oct 7, 3:53 pm)
Average58 °F72%30.11 "Hg
* Reported Oct 5 11:53 am — Oct 20 11:53 am, Paterson. Weather by CustomWeather, © 2020

Note: Actual official high and low records may vary slightly from our data, if they occured in-between our weather recording intervals... More about our weather records

Paterson Weather History for the Previous 24 Hours

Scroll right to see more
 ConditionsComfort  
Time TempWeatherWind HumidityBarometerVisibility
11:53 am
Tue, Oct 20
66 °FOvercast.7 mph81%30.27 "Hg10 mi
11:38 am67 °FOvercast.No wind81%30.25 "Hg10 mi
10:53 am65 °FLow clouds.3 mph85%30.26 "Hg10 mi
9:53 am63 °FLow clouds.No wind87%30.24 "Hg8 mi
8:53 am61 °FLow clouds.No wind90%30.27 "Hg7 mi
8:37 am60 °FFog.No wind90%30.25 "Hg3 mi
8:20 am60 °FFog.No wind86%30.25 "Hg3 mi
7:53 am59 °FLow clouds.No wind90%30.26 "Hg10 mi
6:53 am59 °FOvercast.No wind90%30.25 "Hg10 mi
6:39 am59 °FOvercast.5 mph87%30.24 "Hg10 mi
6:21 am59 °FMostly cloudy.No wind87%30.22 "Hg10 mi
5:53 am58 °FOvercast.No wind90%30.25 "Hg10 mi
4:53 am58 °FMostly cloudy.No wind90%30.25 "Hg10 mi
3:53 am57 °FOvercast.No wind90%30.26 "Hg10 mi
3:04 am57 °FMostly cloudy.No wind87%30.25 "Hg10 mi
2:36 am56 °FMostly cloudy.No wind90%30.26 "Hg10 mi
1:53 am54 °FMostly cloudy.No wind93%30.28 "Hg10 mi
1:32 am54 °FMostly cloudy.No wind90%30.26 "Hg9 mi
12:53 am55 °FClear.No wind90%30.29 "Hg10 mi
11:53 pm
Mon, Oct 19
56 °FClear.3 mph90%30.30 "Hg10 mi
11:29 pm57 °FPassing clouds.No wind87%30.29 "Hg10 mi
11:02 pm57 °FPassing clouds.No wind90%30.30 "Hg10 mi
10:53 pm57 °FPassing clouds.No wind87%30.32 "Hg10 mi
9:53 pm61 °FClear.No wind78%30.30 "Hg10 mi
8:53 pm62 °FPassing clouds.6 mph78%30.30 "Hg10 mi
7:53 pm63 °FMostly cloudy.5 mph75%30.32 "Hg10 mi
6:53 pm63 °FOvercast.5 mph73%30.32 "Hg10 mi
5:53 pm65 °FMostly cloudy.5 mph56%30.31 "Hg10 mi
4:53 pm66 °FPartly sunny.6 mph54%30.30 "Hg10 mi
3:53 pm66 °FPartly sunny.9 mph59%30.30 "Hg10 mi
2:53 pm66 °FMostly cloudy.9 mph59%30.32 "Hg10 mi
1:53 pm66 °FMore clouds than sun.10 mph59%30.33 "Hg10 mi
1:15 pm66 °FMore clouds than sun.9 mph63%30.33 "Hg10 mi
Weather by CustomWeather, © 2020

See weather overview